カタログに戻る

STARLINK-37721

運用中通信SSO
NORAD 100220·PAYLOAD·🇺🇸 United States

打ち上げ Aug 4, 2026 から Vandenberg Space Force Base

Loading…

次のパス (今後24時間)

TLE

最新Source: Space-Track

元期: Sep 14, 2026, 14:49 UTC

1 A0220U 26177H   26257.61751609  .00024626  00000-0  45277-3 0  9992
2 A0220  97.2834 308.4177 0001238  95.9565 264.1828 15.49206381  6457

AllMySatでSTARLINK-37721をリアルタイム追跡

Download on the App Store